Location: Waco, TX
(31.5480°N, 97.1670°W)
Time: 00:37:00
(UTC-06:00)

ISS - Pass Details

Date: 07 December 2017
Orbit: 403 x 407 km, 51.6° (Epoch: 12 December)

Event Time Altitude Azimuth Distance (km) Brightness Sun altitude
Rises 20:49:39 0° 332° (NNW) 2,324 - -42.7°
Reaches altitude 10° 20:52:26 10° 357° (N) 1,460 - -43.3°
Maximum altitude 20:54:22 15° 34° (NE) 1,207 - -43.7°
Drops below altitude 10° 20:56:19 10° 71° (ENE) 1,456 - -44.1°
Sets 20:59:04 0° 96° (E) 2,311 - -44.7°
